Location: Albany
(35.0000°S, 118.0000°E)
Time: 20:45:00
(UTC-05:00)

ADEOS Rocket - Visible Passes

Search period start: 21 February 2017 00:00
Search period end: 03 March 2017 00:00
Orbit: 860 x 1306 km, 98.7° (Epoch: 20 February)

Date Brightness Start Highest point End Pass type
(mag) Time Alt. Az. Time Alt. Az. Time Alt. Az.
21 Feb 5.5 11:45:06 11° SE 11:45:06 11° SE 11:45:41 10° SE visible
21 Feb 4.5 13:32:03 24° SSW 13:32:03 24° SSW 13:34:08 10° SSW visible
22 Feb 4.8 12:42:33 23° SSE 12:42:33 23° SSE 12:44:49 10° S visible
22 Feb 5.0 14:29:31 10° SW 14:29:31 10° SW 14:29:36 10° SW visible
23 Feb 5.4 11:53:02 12° SE 11:53:02 12° SE 11:54:04 10° SSE visible
23 Feb 4.7 13:40:00 20° SSW 13:40:00 20° SSW 13:41:41 10° SSW visible
24 Feb 4.8 12:50:30 22° S 12:50:30 22° S 12:52:33 10° S visible
25 Feb 5.4 12:00:59 14° SE 12:00:59 14° SE 12:02:12 10° SSE visible
25 Feb 4.8 13:47:57 17° SSW 13:47:57 17° SSW 13:49:12 10° SSW visible
26 Feb 4.9 12:58:26 21° S 12:58:26 21° S 13:00:15 10° S visible
27 Feb 5.4 12:08:55 15° SSE 12:08:55 15° SSE 12:10:12 10° SSE visible
27 Feb 5.0 13:55:53 14° SSW 13:55:53 14° SSW 13:56:42 10° SSW visible
28 Feb 5.0 13:06:22 19° S 13:06:22 19° S 13:07:55 10° S visible
01 Mar 5.4 12:16:51 15° SSE 12:16:51 15° SSE 12:18:08 10° SSE visible
01 Mar 5.1 14:03:48 12° SSW 14:03:48 12° SSW 14:04:09 10° SSW visible
02 Mar 5.0 13:14:17 17° S 13:14:17 17° S 13:15:35 10° S visible
